Location: Finley
(33.7462°N, 96.1861°W)
Time: 05:46:21
(UTC+00:00)

Daily predictions for brighter satellites

Satellite Brightness Start Highest point End
(mag) Time Altitude Azimuth Time Altitude Azimuth Time Altitude Azimuth
Cosmos 1626 2.7 02:01:44 10° SSW 02:04:50 52° W 02:07:58 10° N
SJ-6B 3.3 02:01:40 10° S 02:05:13 57° W 02:08:47 10° NNW
Cosmos 2251 Rocket 4.0 02:00:19 10° SSW 02:05:33 70° WNW 02:10:52 10° NNE
Okean O Rocket 2.4 02:01:49 10° SE 02:05:47 35° ENE 02:09:46 10° N
Cosmos 407 Rocket 4.3 02:01:34 10° SSW 02:06:43 59° WNW 02:11:50 10° N
Lacrosse 5 rocket 3.2 02:04:12 10° WNW 02:07:38 25° WSW 02:10:56 10° S
Centaur AC-119 4.2 02:03:57 10° SSW 02:07:44 31° SSE 02:17:11 10° E
USA 186 1.8 02:05:28 10° SSE 02:08:45 69° ENE 02:12:04 10° N
Cosmos 1666 Rocket 3.5 02:07:13 10° N 02:11:34 78° E 02:15:56 10° S
Cosmos 1842 3.6 02:11:51 10° SSE 02:15:16 39° E 02:18:41 10° NNE
CZ-4B R/B 3.1 02:11:27 10° SSE 02:16:42 79° ENE 02:22:02 10° N
Cosmos 1092 Rocket 4.2 02:13:37 10° S 02:19:56 85° W 02:26:19 10° N
Tiangong -0.6 02:18:44 10° NW 02:21:37 31° NNE 02:24:29 10° E
CZ-4 R/B 2.4 02:19:00 10° S 02:22:46 45° W 02:26:37 10° NNW
Cosmos 1954 Rocket 4.0 02:18:44 10° S 02:23:59 73° ESE 02:29:15 10° NNE
SPOT 5 4.2 02:22:14 11° ESE 02:25:10 19° ENE 02:28:15 10° NNE
Cosmos 676 Rocket 4.0 02:30:28 10° S 02:35:46 76° ESE 02:41:05 10° NNE
Resurs 01 Rocket 1.8 02:32:13 10° S 02:36:36 73° WSW 02:41:00 10° NNW
Cosmos 1707 2.5 02:33:31 10° S 02:37:03 60° E 02:40:36 10° NNE
ASTRO E2 3.0 02:37:05 10° SW 02:40:15 34° SSE 02:42:09 19° ESE
Cosmos 2082 Rocket 4.1 02:37:41 10° SW 02:42:51 34° WNW 02:48:01 10° N
PSLV R/B 3.5 02:40:20 11° S 02:43:41 85° WSW 02:47:12 10° NNW
SL-16 R/B 3.6 02:41:21 10° N 02:45:55 25° ENE 02:49:14 15° ESE
SJ 16-02 3.4 02:50:25 12° E 02:50:25 12° E 02:51:23 10° ENE
Cosmos 2333 Rocket 4.3 02:47:54 10° NNE 02:49:52 12° NE 02:51:50 10° ENE
Cosmos 2369 3.7 02:45:17 10° NNW 02:51:03 86° WSW 02:55:49 15° SSE
ERS-1 Rocket 4.2 02:49:41 18° ESE 02:52:16 27° ENE 02:56:26 10° NNE
Cosmos 1674 3.8 02:49:44 10° SSW 02:52:59 39° W 02:56:16 10° N
CZ-4C R/B 3.3 02:54:02 10° NNE 02:58:11 83° ESE 03:02:15 10° S
Atlas Centaur 2 3.0 02:50:25 10° W 02:58:19 69° S 03:05:10 16° ESE
SL-27 R/B 4.2 02:59:50 13° ENE 02:59:50 13° ENE 03:00:19 10° NE
Terra 3.1 02:56:42 19° ESE 02:58:37 24° ENE 03:02:23 10° NNE
MetOp-B 4.4 02:55:24 20° SE 02:58:54 52° ENE 03:04:05 10° N
MOS 1-B Rocket 4.4 02:52:38 10° S 02:58:57 62° WSW 03:04:38 10° NNW
Cosmos 1763 Rocket 3.5 02:55:56 10° NNW 03:01:09 81° WSW 03:04:58 18° S
USA 234 3.4 03:02:15 10° NE 03:08:48 77° NW 03:15:18 10° SW
FALCON 9 R/B 4.3 03:09:03 10° WSW 03:12:55 20° SSW 03:16:38 16° SSE
Cosmos 1300 4.5 03:11:23 10° NE 03:13:23 16° ENE 03:13:23 16° ENE
Cosmos 1400 Rocket 2.6 03:15:07 28° S 03:17:03 76° E 03:20:54 10° NNE
Atlas 2A Centaur Rocket 3.5 03:15:43 10° SW 03:15:53 11° SW 03:15:53 11° SW
IRS-1A Rocket 4.3 03:14:35 27° SE 03:17:31 63° ENE 03:22:57 10° N
ARGOS Delta rocket 3.6 03:15:40 29° SSE 03:17:57 80° ENE 03:22:21 10° N
Cosmos 1417 Rocket 4.4 03:13:52 10° N 03:20:01 68° E 03:23:26 27° SSE
Cosmos 1441 Rocket 2.9 03:16:33 10° N 03:20:11 87° E 03:21:16 43° S
ATLAS CENTAUR R/B 1.4 03:19:14 10° SW 03:22:38 59° WNW 03:26:07 10° NNE
Cosmos 1356 Rocket 3.8 03:22:32 40° ESE 03:23:09 43° E 03:27:08 10° NNE
Okean-O 3.2 03:20:31 20° S 03:23:21 54° W 03:27:40 10° NNW
Cosmos 1908 3.1 03:21:13 10° N 03:24:48 73° W 03:25:58 40° S
Cosmos 1980 Rocket 3.8 03:21:02 10° NW 03:25:51 29° WSW 03:30:38 10° SSW
Cosmos 2322 Rocket 3.1 03:23:07 10° N 03:28:16 34° ENE 03:30:11 27° E
SL-08 ROCKET BODY 4.4 03:25:30 17° S 03:30:19 88° E 03:36:26 10° N
Meteor 2-10 Rocket 4.0 03:25:27 10° N 03:30:43 46° ENE 03:32:13 37° ESE
Ariane Rocket 3.5 03:29:26 35° ESE 03:30:56 44° ENE 03:35:45 10° N
Meteor 1-22 Rocket 4.3 03:25:44 10° N 03:31:27 67° E 03:33:59 35° SSE
USA 245 3.0 03:32:06 57° E 03:32:17 59° ENE 03:36:12 10° N
Cosmos 468 Rocket 4.3 03:28:53 10° NNW 03:33:59 60° WSW 03:36:33 28° S
Cosmos 2228 Rocket 3.0 03:39:24 48° SSE 03:40:34 74° E 03:45:08 10° N
Cosmos 2278 3.7 03:35:43 10° NNW 03:41:26 83° WSW 03:43:39 39° SSE
Okean O Rocket 4.1 03:39:20 10° SW 03:42:06 16° W 03:44:52 10° NW
Cosmos 1241 Rocket 4.3 03:40:31 19° SSW 03:44:59 69° ESE 03:51:10 10° NNE
Landsat 4 4.2 03:45:44 43° NE 03:45:44 43° NE 03:48:32 10° N
Cosmos 1869 Rocket 3.8 03:40:52 10° NNW 03:45:16 64° W 03:46:42 40° SSW
BlueWalker 3 4.1 03:48:25 15° NE 03:48:25 15° NE 03:49:07 10° NE
Cosmos 1850 Rocket 4.3 03:40:35 11° SSW 03:45:39 64° WNW 03:50:50 10° N
Meteor 1-21 4.2 03:45:53 39° SSE 03:48:02 71° E 03:53:50 10° NNE
MOS 1 Rocket 3.6 03:47:05 47° SE 03:48:36 71° ENE 03:53:55 10° N
ATLAS 2AS CENTAUR R/B 3.6 03:45:07 10° NNW 03:51:16 36° NE 03:53:50 27° E
Cosmos 2219 Rocket 3.8 03:48:07 10° N 03:52:21 21° ENE 03:53:40 20° ENE
S3M 4.2 03:51:15 10° N 03:57:34 71° W 04:00:27 34° SSW
Cosmos 968 Rocket 3.6 03:55:16 29° SSW 03:57:53 73° WNW 04:03:03 10° NNE
Tiangong -0.3 03:55:26 10° WNW 03:57:06 26° W 03:57:06 26° W
Cosmos 2237 4.4 03:52:56 10° NNW 03:58:37 66° WSW 04:00:22 44° S
SeaSat 1 2.3 03:57:51 61° SE 03:58:43 84° ENE 04:03:39 10° NNW
SL-14 R/B 3.8 03:59:59 46° WSW 04:00:28 50° W 04:04:10 10° N
Spot 1 4.2 03:56:00 10° NNE 04:00:41 74° ESE 04:01:09 68° SSE
SPOT 3 Rocket 3.4 04:00:41 60° SSE 04:01:39 83° ENE 04:06:50 10° N
SPOT 5 4.2 04:01:22 22° SW 04:02:58 28° W 04:06:42 10° NW
Cosmos 1655 Rocket 4.4 04:02:48 24° SSW 04:06:43 63° W 04:13:05 10° N
Landsat 5 3.5 04:05:16 10° NNE 04:08:59 74° NNE 04:08:59 74° NNE
Okean 3 3.5 04:10:42 73° N 04:10:42 73° N 04:14:29 10° N
Cosmos 1862 Rocket 3.7 04:10:50 62° WSW 04:11:12 66° W 04:15:36 10° N
Cosmos 1346 Rocket 3.2 04:08:00 10° N 04:11:07 56° N 04:11:07 56° N
Cosmos 1814 Rocket 4.4 04:12:40 10° N 04:17:49 48° ENE 04:17:57 48° ENE
Cosmos 2360 Rocket 2.1 04:12:15 10° NNW 04:17:55 71° ENE 04:18:30 65° ESE
Cosmos 1244 Rocket 4.4 04:21:10 61° SSE 04:22:14 77° E 04:28:32 10° N
Nadezhda 2 Rocket 4.4 04:23:37 61° SSE 04:24:45 77° E 04:31:11 10° N
RESURS DK-1 3.2 04:21:49 10° NNW 04:25:03 44° WNW 04:25:03 44° WNW
COSMOS 2455 3.9 04:27:48 31° ENE 04:27:48 31° ENE 04:31:36 10° NE
SJ 16-02 2.2 04:27:07 40° W 04:27:39 43° WNW 04:31:47 10° N
SL-16 R/B 3.0 04:24:51 10° NW 04:30:05 39° WSW 04:31:06 36° SW
ERS-1 Rocket 4.4 04:29:36 25° WSW 04:30:52 28° W 04:35:10 10° NW
Cosmos 2333 Rocket 2.1 04:29:07 10° NNW 04:34:53 90° N 04:35:10 82° SSE
Terra 3.3 04:35:24 26° WSW 04:36:02 27° W 04:40:02 10° NW
CZ-3 Stage 3 4.2 03:48:25 10° W 04:38:07 78° SSW 04:43:33 36° ESE
Atlas Centaur 2 3.3 04:39:39 10° W 04:47:22 48° SSW 04:47:22 48° SSW
SL-08 R/B 4.3 04:48:33 74° SW 04:49:04 81° W 04:55:11 10° N
DNEPR-1 R/B 4.5 04:45:35 10° NNW 04:51:28 55° NE 04:51:28 55° NE
ARIANE 5 R/B 4.0 04:53:07 31° NNE 04:53:07 31° NNE 04:55:47 10° N
Okean 1-7 4.3 04:56:18 38° NW 04:56:18 38° NW 04:59:41 10° N
CZ-4C R/B 3.4 04:58:36 24° NE 04:58:36 24° NE 05:00:45 10° NE
Meteor 1-16 Rocket 4.5 04:51:36 10° NNW 04:57:27 62° W 04:57:40 62° WSW
Cosmos 2322 4.5 04:52:07 10° N 04:57:14 41° ENE 04:57:14 41° ENE
Cosmos 2333 4.4 04:57:41 10° NNW 05:03:03 65° W 05:03:03 65° W
Cosmos 2322 Rocket 3.6 05:07:23 10° NW 05:11:59 27° W 05:11:59 27° W
Cosmos 2297 Rocket 3.3 05:14:18 35° NE 05:14:18 35° NE 05:17:46 10° NNE
GP-B 4.4 05:10:17 10° N 05:13:05 38° NNW 05:13:05 38° NNW
Cosmos 1745 Rocket 4.3 05:33:30 58° W 05:33:34 59° W 05:39:50 10° N
Meteor 2-5 Rocket 4.3 05:36:02 54° NE 05:36:02 54° NE 05:40:40 10° NNE
Cosmos 2219 Rocket 3.1 05:31:04 10° NNW 05:35:22 41° WNW 05:35:22 41° WNW
COSMOS 2428 3.1 05:34:10 10° NNW 05:38:48 59° N 05:38:48 59° N
USA 281 3.2 05:41:51 77° WNW 05:41:51 77° WNW 05:48:07 10° NNW
ALOS 2 4.4 05:44:00 28° NNE 05:44:00 28° NNE 05:46:16 10° N
ATLAS 2AS CENTAUR R/B 3.5 05:36:01 10° NW 05:41:14 36° W 05:41:14 36° W
Nadezhda 1 Rocket 4.4 05:43:24 10° NNW 05:48:56 53° WNW 05:48:56 53° WNW
SL-12 R/B(2) 4.1 06:07:20 69° ESE 06:07:20 69° ESE 06:16:03 10° NE
COSMOS 2455 4.2 06:10:52 28° WNW 06:12:02 30° NW 06:17:18 10° N
NOSS 0 Rocket 4.5 06:20:45 10° NNW 06:25:32 51° NW 06:25:32 51° NW
SL-16 R/B 4.0 06:26:40 10° N 06:31:05 23° ENE 06:32:00 22° ENE
CENTAUR R/B 2.8 06:33:07 57° N 06:33:07 57° N 06:38:21 10° NNE
Cosmos 2227 Rocket 2.9 06:37:23 50° NNW 06:37:23 50° NNW 06:41:51 10° NNE
Cosmos 2237 Rocket 2.9 06:32:05 10° NNW 06:36:08 49° NNW 06:36:08 49° NNW
GEOS 3 Rocket 4.4 06:37:20 10° NNE 06:41:03 46° N 06:41:03 46° N
CZ-4C R/B 4.3 06:43:37 13° WNW 06:45:00 14° NW 06:47:40 10° N
Nadezhda 3 Rocket 4.4 06:40:20 10° N 06:45:55 55° ENE 06:45:55 55° ENE
Cosmos 2184 Rocket 4.3 06:49:15 63° NW 06:49:15 63° NW 06:54:51 10° N
Cosmos 2297 Rocket 4.1 06:56:04 20° WNW 06:56:38 20° WNW 07:00:42 10° NNW
Cosmos 2219 3.8 07:01:34 54° N 07:01:34 54° N 07:05:59 10° NNE
Cosmos 1898 Rocket 4.5 07:05:14 42° NE 07:05:14 42° NE 07:08:43 10° NNE
H-2A R/B 4.3 07:01:22 10° N 07:03:04 20° NNW 07:03:04 20° NNW
Cosmos 2154 Rocket 4.3 07:06:21 57° NW 07:06:21 57° NW 07:11:49 10° N
NOSS 3-2 (A) 3.9 07:21:44 44° NNW 07:21:44 44° NNW 07:26:35 10° NNE
SL-8 Rocket 4.2 07:21:49 59° E 07:21:49 59° E 07:27:37 10° NNE
Resurs 1-4 Rocket 3.9 07:18:30 10° NE 07:22:10 21° E 07:22:10 21° E
NOSS 3-2 (C) 3.6 07:28:54 54° NE 07:28:54 54° NE 07:33:21 10° NNE
Cosmos 2263 Rocket 2.7 07:28:45 53° NNW 07:28:45 53° NNW 07:33:24 10° NNE
Cosmos 962 Rocket 4.5 07:31:14 79° NW 07:31:14 79° NW 07:37:18 10° N
USA 267 4.4 07:34:22 10° ENE 07:39:25 27° ESE 07:39:25 27° ESE
Cosmos 1844 Rocket 3.7 07:47:26 34° E 07:47:26 34° E 07:52:17 10° NE
Cosmos 2341 Rocket 4.0 07:56:13 64° WNW 07:56:13 64° WNW 08:02:16 10° N
COBE Rocket 4.2 07:54:17 10° N 07:58:51 70° N 07:58:51 70° N
Cosmos 864 Rocket 4.4 08:02:24 71° W 08:02:37 72° W 08:08:56 10° N
IDEFIX/ARIANE 42P 2.5 08:03:37 10° NNE 08:08:40 82° NE 08:08:40 82° NE
SL-16 R/B 3.1 08:09:58 10° NW 08:13:48 36° WNW 08:13:48 36° WNW
MOZ.5/SAFIR/RUBIN 5/SL-8 4.2 08:17:56 54° NW 08:17:56 54° NW 08:21:35 10° NNW
CZ-2C R/B 3.2 08:13:27 10° NNE 08:18:40 59° E 08:19:01 57° ESE
CZ-2C R/B 3.1 08:18:00 44° ESE 08:19:20 56° ENE 08:24:34 10° N
Cosmos 1821 Rocket 3.8 08:25:03 67° SSW 08:25:56 83° W 08:32:05 10° N
CZ-2D R/B 1.9 08:21:12 10° NNE 08:26:32 86° ESE 08:26:55 77° S
MSX 3.7 08:21:46 10° N 08:27:30 77° WNW 08:28:10 68° SW
Cosmos 1943 3.4 08:23:29 10° NNW 08:29:05 68° ENE 08:31:17 37° SE
Cosmos 1867 3.6 08:30:15 63° W 08:30:39 66° WNW 08:36:06 10° NNE
Cosmos 2218 Rocket 4.5 08:30:27 41° W 08:30:52 42° W 08:36:43 10° N
Cosmos 2228 3.6 08:26:43 10° N 08:30:02 51° NNW 08:30:02 51° NNW
FENGYUN 3A 3.9 08:27:53 10° NNE 08:33:14 63° ESE 08:34:19 51° SSE
USA 238 DEB 3.5 08:32:42 53° WSW 08:33:54 64° WNW 08:40:23 10° NNE
USA 238 3.5 08:32:45 54° WSW 08:33:57 65° WNW 08:40:26 10° NNE
H-2A R/B 4.3 08:32:28 10° N 08:35:24 40° NW 08:35:24 40° NW
AQUA 4.1 08:35:35 10° NNE 08:40:14 57° E 08:40:58 51° SE
ADEOS II 2.0 08:41:03 10° NNE 08:46:19 87° ESE 08:47:23 58° S
NPP 4.2 08:41:33 10° N 08:46:36 42° WNW 08:47:11 41° W
ALOS 3.0 08:42:14 10° NNE 08:46:41 46° E 08:47:51 37° SE
ATLAS 5 CENTAUR R/B 2.9 08:56:45 19° ESE 08:56:45 19° ESE 08:59:07 10° ENE
Resurs 1-4 Rocket 2.7 08:57:25 10° N 09:02:17 39° WNW 09:03:13 36° W
Cosmos 1934 Rocket 4.1 08:59:41 32° S 09:02:49 80° E 09:09:12 10° N
Cosmos 1844 4.0 09:01:41 43° WSW 09:03:12 56° WNW 09:08:55 10° NNE
SL-16 R/B 2.8 08:59:19 10° SSE 09:05:27 69° ENE 09:11:39 10° N
Cosmos 921 Rocket 3.0 09:01:15 10° N 09:05:27 74° ENE 09:06:56 38° SSE
NOSS 2-2 (C) 3.9 09:07:47 36° SE 09:07:59 37° ESE 09:10:57 10° NE
Cosmos 2123 Rocket 4.3 09:02:39 10° N 09:08:49 67° E 09:14:25 13° SSE
IRAS Rocket 4.4 09:03:53 10° NNE 09:09:21 66° ESE 09:12:12 29° S
Cosmos 1606 Rocket 3.4 09:05:50 10° N 09:10:16 78° W 09:11:20 50° S
Meteor 1-28 Rocket 3.0 09:10:16 61° SE 09:10:47 78° ENE 09:14:19 10° N
Cosmos 2058 3.2 09:10:10 38° SSE 09:11:26 59° E 09:15:27 10° NNE
NOSS 2-2 (D) 4.5 09:16:44 25° SE 09:17:38 28° ESE 09:20:29 10° ENE
Cosmos 2298 Rocket 4.5 09:16:16 26° S 09:19:10 58° ESE 09:24:24 10° NNE
USA 267 3.4 09:16:32 10° NE 09:22:59 66° NW 09:26:45 27° WSW
NOSS 2-3 (E) 4.2 09:22:56 28° SSE 09:24:07 37° ESE 09:27:32 10° NE
Cosmos 1726 Rocket 3.5 09:20:54 10° N 09:25:19 71° W 09:27:08 34° S
Cosmos 1238 Rocket 3.8 09:25:07 10° NNE 09:28:01 32° E 09:30:15 13° SE
NOSS 2-3 (C) 3.9 09:28:26 30° SSE 09:29:44 43° ESE 09:33:14 10° NE
Cosmos 1844 Rocket 3.9 09:29:05 22° W 09:31:08 27° WNW 09:35:50 10° N
METEOR-M 4.4 09:27:00 10° NNE 09:32:20 66° ESE 09:36:24 17° S
Delta 2 Rocket 3.1 09:33:16 24° W 09:35:35 82° SSW 09:39:54 10° ESE
SAR-Lupe-1 4.3 09:35:03 10° N 09:38:33 53° WNW 09:39:32 38° SW
SEDSat Delta rocket 2.7 09:39:27 32° WSW 09:41:08 63° S 09:45:08 10° E
H-2A R/B 4.4 09:38:59 10° NE 09:42:42 19° E 09:46:20 10° SE
Alouette 2 Rocket 4.3 09:41:56 27° SW 09:43:51 38° W 09:47:35 10° N
ASTEX 1 4.1 09:43:47 27° SW 09:45:25 34° W 09:49:49 10° NNW
IRS-1D 4.4 09:42:41 10° NNE 09:47:37 46° E 09:52:24 10° S
BREEZE-M DEB (TANK) 3.2 09:45:34 10° WNW 09:48:28 43° SW 09:57:05 10° SSE
Cosmos 1602 Rocket 4.5 09:48:42 10° SSE 09:52:59 48° E 09:57:16 10° NNE
CZ-2C R/B 2.4 09:50:21 10° NNE 09:54:54 72° ESE 09:59:19 11° S
Lacrosse 5 3.7 09:51:16 10° S 09:55:15 24° ESE 09:59:16 10° ENE
Cosmos 1544 3.0 09:55:25 32° W 09:55:37 32° W 09:58:01 10° NNW
Cosmos 2278 Rocket 3.7 09:51:06 10° SSE 09:56:06 33° ESE 10:01:08 10° NE
Envisat 3.0 09:51:47 10° N 09:56:49 67° WNW 10:00:48 16° SSW
Cosmos 1271 Rocket 3.6 09:55:45 10° SSE 09:59:09 43° E 10:02:35 10° NNE
Cosmos 1048 Rocket 4.4 09:55:00 10° NNW 09:59:54 42° WSW 10:04:52 10° S
CZ-2C R/B 4.3 09:59:27 14° W 09:59:55 14° W 10:02:36 10° WNW
UNK 3.9 09:58:30 11° S 10:02:44 49° W 10:07:12 10° NNW
Cosmos 1862 4.2 10:00:24 10° SSE 10:04:02 46° E 10:07:41 10° NNE
Mugunghwa Rocket 4.4 09:59:07 16° WSW 10:04:06 45° S 10:10:04 10° ESE
Cosmos 1758 Rocket 3.6 10:01:00 10° S 10:05:26 83° E 10:09:52 10° N
Cosmos 2058 Rocket 3.4 10:02:08 10° NNW 10:06:21 46° W 10:10:20 11° SSW
Cosmos 1153 Rocket 4.4 10:05:18 10° S 10:11:27 84° W 10:17:36 10° N
YAOGAN 6 2.2 10:10:49 10° N 10:13:59 67° WNW 10:16:44 13° SSW
Cosmos 1812 4.1 10:15:42 10° NW 10:18:17 19° W 10:19:50 15° WSW
Cosmos 1607 4.2 10:13:03 10° NW 10:19:06 48° WSW 10:25:02 10° S
USA 276 3.2 10:17:32 13° SSW 10:19:51 32° SE 10:22:29 10° ENE
ALOS 4.2 10:20:57 10° NW 10:23:26 14° WNW 10:25:54 10° W
NOSS 2-2 (E) 3.9 10:21:15 14° WSW 10:23:49 32° WNW 10:26:43 10° N
Iridium 4 Rocket 4.2 10:20:07 10° NNW 10:24:09 30° W 10:28:29 10° SSW
Cosmos 1626 Rocket 4.4 10:22:56 12° SW 10:26:37 34° W 10:30:39 10° NNW
Cosmos 1515 3.4 10:23:43 10° N 10:27:12 88° W 10:30:40 10° S
Cosmos 1378 3.4 10:24:20 10° N 10:27:33 58° E 10:30:45 10° SSE
PAYLOAD A 4.3 10:23:38 10° N 10:28:49 60° WNW 10:34:06 10° SSW
Aurora 2 Rocket 4.4 10:27:02 11° SW 10:31:32 30° SSE 10:37:43 10° ESE
Cosmos 1782 3.0 10:34:15 10° NNW 10:37:57 47° W 10:41:38 10° SSW
DMSP B5D2-2 4.1 10:34:18 10° S 10:39:30 65° WSW 10:44:45 10° NNW
Cosmos 2346 Rocket 4.4 10:33:41 10° N 10:39:43 74° W 10:45:44 10° S
ATLAS 5 CENTAUR R/B 2.9 10:38:08 10° W 10:40:20 17° NW 10:42:37 10° N
BREEZE-M R/B 4.4 10:40:10 10° NW 10:46:09 84° NE 10:53:42 10° SE
